FW7504 Weather Reports


time (UTC)temp
F
wind
direction
speed
knots
gust
knots
rain 1hr
in
rain 24hr
in
rain mn
in
humidity
%
barometer
mb
20260503013548 59 360 2.6 8.7 0.00 0.00 0.00 49 1018.0
20260503013052 59 360 2.6 8.7 0.00 0.00 0.00 48 1017.8
20260503012552 60 360 1.7 12.2 0.00 0.00 0.00 48 1017.9
20260503012053 60 360 3.5 12.2 0.00 0.00 0.00 47 1017.8
20260503011556 61 360 3.5 12.2 0.00 0.00 0.00 46 1017.6
20260503011048 61 360 1.7 5.2 0.00 0.00 0.00 45 1017.7
20260503010548 61 360 0.9 4.3 0.00 0.00 0.00 44 1017.5
20260503010051 61 0 0.9 4.3 0.00 0.00 0.00 43 1017.1
20260503005553 61 0 0.0 5.2 0.00 0.00 0.00 43 1017.1
20260503005052 61 360 0.9 7.8 0.00 0.00 0.00 43 1017.1
20260503004550 62 360 0.9 7.8 0.00 0.00 0.00 42 1016.8
20260503004054 62 360 0.9 7.0 0.00 0.00 0.00 42 1016.8
20260503003551 62 360 0.9 5.2 0.00 0.00 0.00 42 1016.8
20260503003053 62 360 1.7 5.2 0.00 0.00 0.00 41 1016.7
20260503002552 62 360 0.9 5.2 0.00 0.00 0.00 41 1016.6
20260503002048 62 360 0.9 5.2 0.00 0.00 0.00 42 1016.6
20260503001602 62 0 0.0 3.5 0.00 0.00 0.00 42 1016.4
20260503001048 62 360 0.9 4.3 0.00 0.00 0.00 41 1016.2
20260503000551 63 360 0.9 4.3 0.00 0.00 0.00 41 1016.2
20260503000052 63 0 0.9 7.0 0.00 0.00 0.00 40 1016.3
20260502235551 63 360 0.9 7.0 0.00 0.00 0.00 40 1016.0
20260502235051 63 360 0.9 7.0 0.00 0.00 0.00 39 1016.0
20260502234553 63 360 0.9 7.0 0.00 0.00 0.00 39 1015.8
20260502234052 64 360 1.7 7.0 0.00 0.00 0.00 38 1015.7
20260502233552 64 360 0.0 7.8 0.00 0.00 0.00 39 1015.6
20260502233054 64 0 1.7 7.8 0.00 0.00 0.00 38 1015.6
20260502232554 64 360 0.9 8.7 0.00 0.00 0.00 38 1015.5
20260502232051 64 360 0.9 8.7 0.00 0.00 0.00 38 1015.6
20260502231551 64 360 1.7 9.6 0.00 0.00 0.00 37 1015.6
20260502231051 64 360 0.9 9.6 0.00 0.00 0.00 35 1015.6
20260502230551 64 360 0.0 7.0 0.00 0.00 0.00 37 1015.6
20260502230056 65 0 0.9 8.7 0.00 0.00 0.00 35 1015.4
20260502225550 65 360 0.9 8.7 0.00 0.00 0.00 36 1015.6
20260502225051 65 360 2.6 7.8 0.00 0.00 0.00 35 1015.6
20260502224551 65 360 1.7 9.6 0.00 0.00 0.00 36 1015.7
20260502224051 65 360 1.7 11.3 0.00 0.00 0.00 35 1015.7
20260502223551 65 360 5.2 11.3 0.00 0.00 0.00 35 1015.6
20260502223057 65 360 4.3 11.3 0.00 0.00 0.00 35 1015.7
20260502222553 66 360 3.5 9.6 0.00 0.00 0.00 34 1015.4
20260502222054 66 360 0.9 8.7 0.00 0.00 0.00 35 1015.5
20260502221558 66 360 3.5 8.7 0.00 0.00 0.00 35 1015.7
20260502221054 66 360 0.9 5.2 0.00 0.00 0.00 37 1015.5
20260502220553 66 360 1.7 7.0 0.00 0.00 0.00 36 1015.4
20260502220055 66 360 1.7 11.3 0.00 0.00 0.00 36 1015.4
20260502215553 66 360 4.3 11.3 0.00 0.00 0.00 36 1015.4
20260502215053 66 360 0.9 10.4 0.00 0.00 0.00 36 1015.4
20260502214558 66 0 0.9 10.4 0.00 0.00 0.00 36 1015.3
20260502214054 66 360 2.6 10.4 0.00 0.00 0.00 35 1015.4
20260502213553 66 0 1.7 10.4 0.00 0.00 0.00 36 1015.3
20260502213054 66 360 3.5 10.4 0.00 0.00 0.00 35 1015.2
20260502212553 66 360 1.7 10.4 0.00 0.00 0.00 36 1015.1
20260502212053 66 360 2.6 10.4 0.00 0.00 0.00 35 1015.2
20260502211559 67 360 1.7 8.7 0.00 0.00 0.00 35 1015.1
20260502211057 66 360 2.6 10.4 0.00 0.00 0.00 35 1015.2
20260502210554 67 360 3.5 10.4 0.00 0.00 0.00 34 1015.3
20260502210110 67 0 2.6 10.4 0.00 0.00 0.00 34 1015.3
20260502205554 67 360 4.3 10.4 0.00 0.00 0.00 35 1015.2
20260502205055 67 360 3.5 9.6 0.00 0.00 0.00 35 1015.2
20260502204559 67 360 1.7 12.2 0.00 0.00 0.00 35 1015.1
20260502204053 67 360 3.5 12.2 0.00 0.00 0.00 33 1015.0
20260502203553 67 360 3.5 12.2 0.00 0.00 0.00 34 1015.1
20260502203057 67 360 3.5 9.6 0.00 0.00 0.00 36 1015.2
20260502202553 67 360 3.5 10.4 0.00 0.00 0.00 34 1015.2
20260502202052 67 360 4.3 10.4 0.00 0.00 0.00 36 1015.1
20260502201554 67 360 3.5 10.4 0.00 0.00 0.00 37 1015.2
20260502201053 67 360 3.5 7.8 0.00 0.00 0.00 36 1015.3
20260502200553 67 360 2.6 11.3 0.00 0.00 0.00 37 1015.2
20260502200101 67 360 4.3 11.3 0.00 0.00 0.00 38 1015.4
20260502195552 67 360 2.6 11.3 0.00 0.00 0.00 37 1015.4
20260502195054 66 0 3.5 9.6 0.00 0.00 0.00 37 1015.4
20260502194558 66 360 3.5 9.6 0.00 0.00 0.00 36 1015.5
20260502194055 66 360 3.5 8.7 0.00 0.00 0.00 38 1015.5
20260502193553 66 360 0.9 8.7 0.00 0.00 0.00 37 1015.7
20260502193109 66 0 4.3 8.7 0.00 0.00 0.00 35 1015.6
20260502192552 66 360 2.6 9.6 0.00 0.00 0.00 37 1015.7
20260502192052 66 360 3.5 9.6 0.00 0.00 0.00 36 1015.8
20260502191559 66 360 2.6 12.2 0.00 0.00 0.00 36 1015.8
20260502191052 66 360 4.3 12.2 0.00 0.00 0.00 37 1015.7
20260502190553 66 360 3.5 11.3 0.00 0.00 0.00 37 1015.7
20260502190106 66 360 3.5 11.3 0.00 0.00 0.00 37 1015.8
20260502185554 66 360 5.2 10.4 0.00 0.00 0.00 38 1015.8
20260502185053 65 360 1.7 12.2 0.00 0.00 0.00 39 1015.9
20260502184559 65 360 4.3 12.2 0.00 0.00 0.00 40 1016.0
20260502184053 65 360 3.5 8.7 0.00 0.00 0.00 40 1016.0
20260502183553 65 360 3.5 11.3 0.00 0.00 0.00 37 1016.1
20260502183109 65 360 2.6 11.3 0.00 0.00 0.00 39 1016.0
20260502182552 65 360 3.5 13.0 0.00 0.00 0.00 37 1016.1
20260502182052 66 360 2.6 13.0 0.00 0.00 0.00 38 1016.1
20260502181552 65 360 5.2 13.0 0.00 0.00 0.00 39 1016.1
20260502181053 65 360 3.5 11.3 0.00 0.00 0.00 40 1016.1
20260502180557 65 360 3.5 10.4 0.00 0.00 0.00 38 1016.1
20260502164052 62 360 2.6 11.3 0.00 0.00 0.00 43 1016.8
20260502163552 62 360 5.2 10.4 0.00 0.00 0.00 42 1016.8
20260502163056 62 360 3.5 8.7 0.00 0.00 0.00 42 1016.9
20260502162553 62 360 3.5 9.6 0.00 0.00 0.00 43 1017.0
20260502162052 62 360 3.5 9.6 0.00 0.00 0.00 42 1017.1
20260502161611 61 360 2.6 10.4 0.00 0.00 0.00 43 1017.1
20260502161055 61 360 4.3 10.4 0.00 0.00 0.00 44 1017.0
20260502160554 61 360 2.6 9.6 0.00 0.00 0.00 44 1017.0
20260502152057 61 360 2.6 11.3 0.00 0.00 0.00 43 1016.6
20260502151606 61 360 1.7 11.3 0.00 0.00 0.00 43 1016.6
20260502151052 61 360 4.3 12.2 0.00 0.00 0.00 44 1016.6
20260502150552 61 360 4.3 12.2 0.00 0.00 0.00 45 1016.6
20260502130552 55 360 3.5 11.3 0.00 0.00 0.00 61 1016.1
20260502123552 53 360 1.7 7.0 0.00 0.00 0.00 65 1015.8
20260502123053 53 360 2.6 7.0 0.00 0.00 0.00 66 1015.9
20260502122552 53 360 0.9 5.2 0.00 0.00 0.00 66 1015.7
20260502122052 52 360 1.7 5.2 0.00 0.00 0.00 66 1015.8
20260502121554 52 360 1.7 4.3 0.00 0.00 0.00 66 1015.5
20260502121053 52 360 0.9 5.2 0.00 0.00 0.00 66 1015.5
20260502120552 52 360 0.9 5.2 0.00 0.00 0.00 66 1015.6
20260502115553 52 360 0.9 4.3 0.00 0.00 0.00 65 1015.5
20260502115057 52 360 0.9 4.3 0.00 0.00 0.00 65 1015.7
20260502114554 52 360 0.9 4.3 0.00 0.00 0.00 65 1015.6
20260502114053 52 360 0.9 4.3 0.00 0.00 0.00 65 1015.6
20260502113555 52 0 0.9 4.3 0.00 0.00 0.00 65 1015.5
20260502113051 52 0 0.9 7.0 0.00 0.00 0.00 64 1015.5
20260502112552 52 360 1.7 7.0 0.00 0.00 0.00 64 1015.4
20260502112052 52 360 0.9 5.2 0.00 0.00 0.00 64 1015.6
20260502111605 52 360 0.9 5.2 0.00 0.00 0.00 64 1015.5
20260502111052 52 360 1.7 5.2 0.00 0.00 0.00 64 1015.5
20260502110552 52 0 1.7 5.2 0.00 0.00 0.00 64 1015.5
20260502110055 52 360 0.9 4.3 0.00 0.00 0.00 64 1015.4
20260502105553 52 360 1.7 4.3 0.00 0.00 0.00 63 1015.3
20260502105052 52 360 1.7 7.0 0.00 0.00 0.00 64 1015.1
20260502104558 52 360 1.7 7.0 0.00 0.00 0.00 63 1015.0
20260502104053 53 360 0.9 4.3 0.00 0.00 0.00 63 1015.1
20260502103556 53 360 0.9 5.2 0.00 0.00 0.00 63 1015.2
20260502103055 53 0 0.9 7.0 0.00 0.00 0.00 63 1015.1
20260502102553 53 360 1.7 7.0 0.00 0.00 0.00 63 1015.0
20260502102052 53 360 1.7 5.2 0.00 0.00 0.00 62 1015.0
20260502101554 53 360 0.9 4.3 0.00 0.00 0.00 62 1015.2
20260502101052 53 360 0.9 4.3 0.00 0.00 0.00 62 1015.3
20260502100552 53 360 0.9 4.3 0.00 0.00 0.00 62 1015.2
20260502091052 54 360 1.7 7.8 0.00 0.00 0.00 58 1015.0
20260502090552 54 360 2.6 7.0 0.00 0.00 0.00 58 1015.0
20260502090111 54 360 1.7 7.0 0.00 0.00 0.00 58 1015.3
20260502071054 56 360 1.7 7.0 0.00 0.00 0.00 52 1015.6
20260502070552 56 360 0.9 7.0 0.00 0.00 0.00 53 1016.0
20260502070104 56 0 1.7 7.0 0.00 0.00 0.00 52 1016.1
20260502065552 56 360 1.7 5.2 0.00 0.00 0.00 53 1016.2
20260502065052 56 360 0.9 4.3 0.00 0.00 0.00 53 1016.1
20260502064551 56 360 0.0 3.5 0.00 0.00 0.00 53 1016.1
20260502064052 56 0 0.9 3.5 0.00 0.00 0.00 52 1016.1
20260502063553 57 0 0.0 4.3 0.00 0.00 0.00 52 1016.1
20260502063055 57 0 0.9 4.3 0.00 0.00 0.00 52 1015.8
20260502062553 57 0 0.0 4.3 0.00 0.00 0.00 52 1015.9
20260502062052 57 360 0.9 4.3 0.00 0.00 0.00 51 1015.9
20260502061555 57 360 0.9 4.3 0.00 0.00 0.00 51 1015.9
20260502061051 57 0 0.9 4.3 0.00 0.00 0.00 51 1016.0
20260502060555 57 360 0.9 4.3 0.00 0.00 0.00 51 1016.2
20260502060053 57 360 1.7 4.3 0.00 0.00 0.00 51 1016.3
20260502055552 57 360 1.7 4.3 0.00 0.00 0.00 51 1016.2
20260502055053 57 360 0.9 3.5 0.00 0.00 0.00 51 1016.2
20260502054553 57 0 0.9 3.5 0.00 0.00 0.00 50 1016.0
20260502054052 58 0 1.7 7.0 0.00 0.00 0.00 50 1016.0
20260502053552 58 0 1.7 7.0 0.00 0.00 0.00 50 1015.8
20260502053119 58 0 1.7 7.0 0.00 0.00 0.00 50 1015.8
20260502052552 58 360 1.7 4.3 0.00 0.00 0.00 50 1015.7
20260502052052 58 360 0.9 4.3 0.00 0.00 0.00 50 1015.5
20260502051604 58 360 0.9 5.2 0.00 0.00 0.00 49 1015.5
20260502051052 58 0 1.7 8.7 0.00 0.00 0.00 49 1015.7
20260502050554 58 360 0.9 8.7 0.00 0.00 0.00 49 1015.6
20260502050056 58 360 3.5 8.7 0.00 0.00 0.00 48 1015.6
20260502045552 58 360 2.6 7.8 0.00 0.00 0.00 49 1015.7
20260502045055 59 360 2.6 9.6 0.00 0.00 0.00 50 1015.8
20260502044554 59 360 1.7 9.6 0.00 0.00 0.00 50 1015.8
20260502044054 59 360 2.6 10.4 0.00 0.00 0.00 50 1015.8
20260502043552 59 360 3.5 10.4 0.00 0.00 0.00 50 1015.7
20260502043057 59 360 2.6 8.7 0.00 0.00 0.00 52 1015.7
20260502042552 59 360 2.6 7.8 0.00 0.00 0.00 53 1015.6
20260502042052 59 360 2.6 7.8 0.00 0.00 0.00 54 1015.7
20260502041621 59 360 1.7 7.8 0.00 0.00 0.00 54 1015.7
20260502041052 59 360 1.7 7.8 0.00 0.00 0.00 55 1015.8
20260502040552 60 360 1.7 7.0 0.00 0.00 0.00 56 1015.8
20260502040057 60 360 0.9 5.2 0.00 0.00 0.00 57 1016.0
20260502035552 60 360 0.9 5.2 0.00 0.00 0.00 56 1015.8
20260502035052 60 360 0.9 7.8 0.00 0.00 0.00 56 1015.9
20260502034559 60 360 1.7 7.8 0.00 0.00 0.00 57 1015.8
20260502034052 60 360 2.6 8.7 0.00 0.00 0.00 56 1015.7
20260502033551 60 360 0.9 8.7 0.00 0.00 0.00 57 1015.7
20260502033106 60 360 3.5 9.6 0.00 0.00 0.00 58 1015.8
20260502032552 60 360 1.7 10.4 0.00 0.00 0.00 58 1015.7
20260502032052 60 360 4.3 10.4 0.00 0.00 0.00 58 1015.6
20260502031558 61 360 3.5 9.6 0.00 0.00 0.00 59 1015.8
20260502031055 61 360 0.0 4.3 0.00 0.00 0.00 60 1015.8
20260502030554 61 0 0.9 9.6 0.00 0.00 0.00 60 1015.7
20260502030057 61 0 1.7 9.6 0.00 0.00 0.00 60 1015.7
20260502025552 61 360 2.6 10.4 0.00 0.00 0.00 60 1015.8
20260502025052 61 360 3.5 10.4 0.00 0.00 0.00 60 1015.7
20260502024556 61 360 1.7 4.3 0.00 0.00 0.00 60 1015.4
20260502024052 61 360 0.9 3.5 0.00 0.00 0.00 60 1015.5
20260502023554 61 360 0.0 3.5 0.00 0.00 0.00 62 1015.5
20260502023055 61 360 0.0 3.5 0.00 0.00 0.00 62 1015.5
20260502022552 61 360 0.9 3.5 0.00 0.00 0.00 62 1015.5
20260502022052 61 0 0.0 7.8 0.00 0.00 0.00 62 1015.4
20260502021552 61 360 0.9 7.8 0.00 0.00 0.00 62 1015.4
20260502021051 61 360 2.6 7.8 0.00 0.00 0.00 61 1015.4
20260502020552 61 360 1.7 7.8 0.00 0.00 0.00 62 1015.4
20260502020059 61 360 1.7 7.8 0.00 0.00 0.00 62 1015.4
20260502015552 61 360 1.7 3.5 0.00 0.00 0.00 63 1015.3
20260502015052 61 360 0.9 3.5 0.00 0.00 0.00 65 1015.2
20260502014553 61 0 0.0 1.7 0.00 0.00 0.00 65 1015.0
20260502014052 61 0 0.0 2.6 0.00 0.00 0.00 66 1015.2